Time,TemperatureF,DewpointF,PressureIn,WindDirection,WindDirectionDegrees,WindSpeedMPH,WindSpeedGustMPH,Humidity,HourlyPrecipIn,Conditions,Clouds,dailyrainin,SoftwareType,DateUTC
2013-03-06 10:40:00,31.0,-99.9,30.23,NNW,340,9.0,11.0,-999,-99.99,,,-99.99,,2013-03-06 16:40:00,
2013-03-06 11:01:00,31.0,-99.9,30.23,NNW,340,9.0,11.0,-999,-99.99,,,-99.99,,2013-03-06 17:01:00,
2013-03-06 11:11:00,31.0,-99.9,30.23,NNW,340,9.0,11.0,-999,-99.99,,,-99.99,,2013-03-06 17:11:00,
2013-03-06 11:22:00,31.0,-99.9,30.23,NNW,340,9.0,11.0,-999,-99.99,,,-99.99,,2013-03-06 17:22:00,
2013-03-06 11:32:00,31.0,-99.9,30.23,NNW,340,9.0,11.0,-999,-99.99,,,-99.99,,2013-03-06 17:32:00,
2013-03-06 11:40:00,31.0,-99.9,30.23,NNW,330,13.0,15.0,-999,-99.99,,,-99.99,,2013-03-06 17:40:00,
2013-03-06 12:02:00,31.0,-99.9,30.23,NNW,330,13.0,15.0,-999,-99.99,,,-99.99,,2013-03-06 18:02:00,
2013-03-06 12:29:00,31.0,-99.9,30.23,NNW,330,13.0,15.0,-999,-99.99,,,-99.99,,2013-03-06 18:29:00,
2013-03-06 12:40:00,30.0,-99.9,30.22,NNW,340,14.0,17.0,-999,-99.99,,,-99.99,,2013-03-06 18:40:00,
2013-03-06 13:02:00,30.0,-99.9,30.22,NNW,340,14.0,17.0,-999,-99.99,,,-99.99,,2013-03-06 19:02:00,
2013-03-06 13:11:00,30.0,-99.9,30.22,NNW,340,14.0,17.0,-999,-99.99,,,-99.99,,2013-03-06 19:11:00,
2013-03-06 13:22:00,30.0,-99.9,30.22,NNW,340,14.0,17.0,-999,-99.99,,,-99.99,,2013-03-06 19:22:00,
2013-03-06 13:33:00,30.0,-99.9,30.22,NNW,340,14.0,17.0,-999,-99.99,,,-99.99,,2013-03-06 19:33:00,
2013-03-06 13:40:00,29.0,-99.9,30.22,NNW,340,14.0,18.0,-999,-99.99,,,-99.99,,2013-03-06 19:40:00,
2013-03-06 14:02:00,29.0,-99.9,30.22,NNW,340,14.0,18.0,-999,-99.99,,,-99.99,,2013-03-06 20:02:00,
2013-03-06 14:12:00,29.0,-99.9,30.22,NNW,340,14.0,18.0,-999,-99.99,,,-99.99,,2013-03-06 20:12:00,
2013-03-06 14:23:00,29.0,-99.9,30.22,NNW,340,14.0,18.0,-999,-99.99,,,-99.99,,2013-03-06 20:23:00,
2013-03-06 14:33:00,29.0,-99.9,30.22,NNW,340,14.0,18.0,-999,-99.99,,,-99.99,,2013-03-06 20:33:00,
2013-03-06 14:40:00,29.0,-99.9,30.23,North,350,14.0,18.0,-999,-99.99,,,-99.99,,2013-03-06 20:40:00,
2013-03-06 15:02:00,29.0,-99.9,30.23,North,350,14.0,18.0,-999,-99.99,,,-99.99,,2013-03-06 21:02:00,
2013-03-06 15:12:00,29.0,-99.9,30.23,North,350,14.0,18.0,-999,-99.99,,,-99.99,,2013-03-06 21:12:00,
2013-03-06 15:23:00,29.0,-99.9,30.23,North,350,14.0,18.0,-999,-99.99,,,-99.99,,2013-03-06 21:23:00,
2013-03-06 15:33:00,29.0,-99.9,30.23,North,350,14.0,18.0,-999,-99.99,,,-99.99,,2013-03-06 21:33:00,
2013-03-06 15:40:00,29.0,-99.9,30.23,NNW,340,11.0,16.0,-999,-99.99,,,-99.99,,2013-03-06 21:40:00,
2013-03-06 16:02:00,29.0,-99.9,30.23,NNW,340,11.0,16.0,-999,-99.99,,,-99.99,,2013-03-06 22:02:00,
2013-03-06 16:12:00,29.0,-99.9,30.23,NNW,340,11.0,16.0,-999,-99.99,,,-99.99,,2013-03-06 22:12:00,
2013-03-06 16:22:00,29.0,-99.9,30.23,NNW,340,11.0,16.0,-999,-99.99,,,-99.99,,2013-03-06 22:22:00,
2013-03-06 16:32:00,29.0,-99.9,30.23,NNW,340,11.0,16.0,-999,-99.99,,,-99.99,,2013-03-06 22:32:00,
2013-03-06 16:40:00,28.0,-99.9,30.24,NNW,330,9.0,13.0,-999,-99.99,,,-99.99,,2013-03-06 22:40:00,
2013-03-06 17:02:00,28.0,-99.9,30.24,NNW,330,9.0,13.0,-999,-99.99,,,-99.99,,2013-03-06 23:02:00,
2013-03-06 17:11:00,28.0,-99.9,30.24,NNW,330,9.0,13.0,-999,-99.99,,,-99.99,,2013-03-06 23:11:00,
2013-03-06 17:22:00,28.0,-99.9,30.24,NNW,330,9.0,13.0,-999,-99.99,,,-99.99,,2013-03-06 23:22:00,
2013-03-06 17:32:00,28.0,-99.9,30.24,NNW,330,9.0,13.0,-999,-99.99,,,-99.99,,2013-03-06 23:32:00,
2013-03-06 17:40:00,29.0,-99.9,30.25,North,350,10.0,13.0,-999,-99.99,,,-99.99,,2013-03-06 23:40:00,
2013-03-06 18:02:00,29.0,-99.9,30.25,North,350,10.0,13.0,-999,-99.99,,,-99.99,,2013-03-07 00:02:00,
2013-03-06 18:11:00,29.0,-99.9,30.25,North,350,10.0,13.0,-999,-99.99,,,-99.99,,2013-03-07 00:11:00,
2013-03-06 18:22:00,29.0,-99.9,30.25,North,350,10.0,13.0,-999,-99.99,,,-99.99,,2013-03-07 00:22:00,
2013-03-06 18:32:00,29.0,-99.9,30.25,North,350,10.0,13.0,-999,-99.99,,,-99.99,,2013-03-07 00:32:00,
2013-03-06 18:40:00,29.0,-99.9,30.26,NNE,20,6.0,10.0,-999,-99.99,,,-99.99,,2013-03-07 00:40:00,
2013-03-06 19:02:00,29.0,-99.9,30.26,NNE,20,6.0,10.0,-999,-99.99,,,-99.99,,2013-03-07 01:02:00,
2013-03-06 19:12:00,29.0,-99.9,30.26,NNE,20,6.0,10.0,-999,-99.99,,,-99.99,,2013-03-07 01:12:00,
2013-03-06 19:22:00,29.0,-99.9,30.26,NNE,20,6.0,10.0,-999,-99.99,,,-99.99,,2013-03-07 01:22:00,
2013-03-06 19:32:00,29.0,-99.9,30.26,NNE,20,6.0,10.0,-999,-99.99,,,-99.99,,2013-03-07 01:32:00,
2013-03-06 21:40:00,27.0,-99.9,30.29,NNW,340,14.0,17.0,-999,-99.99,,,-99.99,,2013-03-07 03:40:00,
2013-03-06 22:02:00,27.0,-99.9,30.29,NNW,340,14.0,17.0,-999,-99.99,,,-99.99,,2013-03-07 04:02:00,
2013-03-06 22:12:00,27.0,-99.9,30.29,NNW,340,14.0,17.0,-999,-99.99,,,-99.99,,2013-03-07 04:12:00,
2013-03-06 22:22:00,27.0,-99.9,30.29,NNW,340,14.0,17.0,-999,-99.99,,,-99.99,,2013-03-07 04:22:00,
2013-03-06 22:32:00,27.0,-99.9,30.29,NNW,340,14.0,17.0,-999,-99.99,,,-99.99,,2013-03-07 04:32:00,
2013-03-06 22:40:00,26.0,-99.9,30.29,NNW,330,8.0,11.0,-999,-99.99,,,-99.99,,2013-03-07 04:40:00,
2013-03-06 23:03:00,26.0,-99.9,30.29,NNW,330,8.0,11.0,-999,-99.99,,,-99.99,,2013-03-07 05:03:00,
2013-03-06 23:12:00,26.0,-99.9,30.29,NNW,330,8.0,11.0,-999,-99.99,,,-99.99,,2013-03-07 05:12:00,
2013-03-06 23:23:00,26.0,-99.9,30.29,NNW,330,8.0,11.0,-999,-99.99,,,-99.99,,2013-03-07 05:23:00,
2013-03-06 23:32:00,26.0,-99.9,30.29,NNW,330,8.0,11.0,-999,-99.99,,,-99.99,,2013-03-07 05:32:00,